sat.trackr.live / text

‹ back to catalog

TERRASAR-X

NORAD 31698 · 2007-026A

PAYLOAD ACTIVE UNKNOWN

§ Identity

Operator
Country
GER
Launch date
2007-06-15
Launch site
TYMSC
Launch vehicle
Mass (kg)
RCS (m²)
2.27

Purposes: earth_obs

External: N2YO · Heavens-Above · Gunter

§ Orbital elements

Epoch: 2026-09-19T10:46:56.503776Z

Period
94.79 min
Inclination
97.4471°
Eccentricity
0.0001571
Mean motion
15.19151780 rev/d
Perigee alt
507.3 km
Apogee alt
509.5 km
Semi-major
6,886.5 km
B*
4.3892e-6
RAAN
268.8201°
Arg perigee
90.6154°
Mean anomaly
269.5261°
Rev number
6,753

§ Raw data

TERRASAR-X1 31698U 07026A   26262.44926509  .00000025  00000+0  43892-5 0  99962 31698  97.4471 268.8201 0001571  90.6154 269.5261 15.19151780 67537

JSON: /api/v1/satellites/31698 · /tle

For live sub-satellite position, see the globe view (requires WebGL).

§ Visibility from observer

Set your observer location to see the next 7 days of passes ≥ 10°. The values pass through the URL so the page stays shareable.

No JS? Fill the form by hand. The geolocation button needs JavaScript.

§ Radio — SatNOGS DB

ModeDescriptionDownlinkUplink
FM S-band telemetry 2.280 GHz

1 transmitter · refreshed weekly from db.satnogs.org